DW5893 Weather Reports


time (UTC)temp
C
wind
direction
speed
KPH
gust
KPH
rain 1hr
cm
rain 24hr
cm
rain mn
cm
humidity
%
barometer
mb
20260906214519 30 360 9.7 0.0 0.00 0.00 0.00 51 999.5
20260906214018 30 360 9.7 0.0 0.00 0.00 0.00 51 999.6
20260906213522 30 360 9.7 0.0 0.00 0.00 0.00 52 999.7
20260906212556 30 360 11.3 0.0 0.00 0.00 0.00 52 999.8
20260906212058 30 360 9.7 0.0 0.00 0.00 0.00 53 999.9
20260906211555 30 360 8.0 0.0 0.00 0.00 0.00 53 1000.0
20260906211053 30 360 6.4 0.0 0.00 0.00 0.00 54 1000.2
20260906210553 29 360 4.8 0.0 0.00 0.00 0.00 55 1000.3
20260906205534 29 360 6.4 0.0 0.00 0.00 0.00 57 1000.5
20260906205032 28 360 8.0 0.0 0.00 0.00 0.00 58 1000.6
20260906204533 28 360 11.3 0.0 0.00 0.00 0.00 58 1000.7
20260906204033 28 360 8.0 0.0 0.00 0.00 0.00 58 1000.7
20260906203532 28 360 6.4 0.0 0.00 0.00 0.00 59 1000.8
20260906203034 28 360 4.8 0.0 0.00 0.00 0.00 61 1000.9
20260906202530 28 351 6.4 0.0 0.00 0.00 0.00 61 1000.9
20260906202030 28 360 6.4 0.0 0.00 0.00 0.00 61 1000.9
20260906201540 28 360 8.0 0.0 0.00 0.00 0.00 62 1001.0
20260906201028 28 360 6.4 0.0 0.00 0.00 0.00 62 1001.1
20260906200527 28 360 8.0 0.0 0.00 0.00 0.00 63 1001.2
20260906195525 27 360 12.9 0.0 0.00 0.00 0.00 64 1001.2
20260906195025 27 360 11.3 0.0 0.00 0.00 0.00 65 1001.2
20260906194525 27 360 9.7 0.0 0.00 0.00 0.00 65 1001.3
20260906194023 27 360 11.3 0.0 0.00 0.00 0.00 66 1001.4
20260906193525 27 360 12.9 0.0 0.00 0.00 0.00 65 1001.4
20260906193025 27 360 11.3 0.0 0.00 0.00 0.00 66 1001.5
20260906192522 27 360 12.9 0.0 0.00 0.00 0.00 68 1001.5
20260906192022 27 360 14.5 0.0 0.00 0.00 0.00 68 1001.5
20260906191522 27 360 12.9 0.0 0.00 0.00 0.00 68 1001.5
20260906191022 26 360 12.9 0.0 0.00 0.00 0.00 69 1001.5
20260906190523 27 360 9.7 0.0 0.00 0.00 0.00 69 1001.6
20260906185520 27 360 6.4 0.0 0.00 0.00 0.00 68 1001.8
20260906185024 27 360 9.7 0.0 0.00 0.00 0.00 65 1001.9
20260906184519 26 360 9.7 0.0 0.00 0.00 0.00 65 1002.0
20260906184022 26 360 8.0 0.0 0.00 0.00 0.00 66 1001.9
20260906183519 26 360 8.0 0.0 0.00 0.00 0.00 68 1002.0
20260906183019 26 360 8.0 0.0 0.00 0.00 0.00 67 1002.1
20260906182517 26 360 6.4 0.0 0.00 0.00 0.00 67 1002.0
20260906182016 26 360 8.0 0.0 0.00 0.00 0.00 69 1002.0
20260906181516 26 360 8.0 0.0 0.00 0.00 0.00 69 1002.0
20260906181015 26 360 6.4 0.0 0.00 0.00 0.00 70 1001.9
20260906180520 26 360 4.8 0.0 0.00 0.00 0.00 69 1001.9
20260906175514 26 360 3.2 0.0 0.00 0.00 0.00 69 1002.1
20260906175014 26 360 1.6 0.0 0.00 0.00 0.00 70 1002.2
20260906174512 25 360 1.6 0.0 0.00 0.00 0.00 71 1002.2
20260906174010 25 360 3.2 0.0 0.00 0.00 0.00 72 1002.3
20260906173508 25 360 3.2 0.0 0.00 0.00 0.00 74 1002.3
20260906173007 25 360 4.8 0.0 0.00 0.00 0.00 75 1002.2
20260906172507 24 360 6.4 0.0 0.00 0.00 0.00 76 1002.2
20260906172006 24 360 4.8 0.0 0.00 0.00 0.00 77 1002.2
20260906171505 24 360 4.8 0.0 0.00 0.00 0.00 77 1002.1
20260906171003 23 360 4.8 0.0 0.00 0.00 0.00 78 1002.2
20260906170505 23 360 3.2 0.0 0.00 0.00 0.00 81 1002.3
20260906165503 23 360 4.8 0.0 0.00 0.00 0.00 82 1002.2
20260906165003 22 360 4.8 0.0 0.00 0.00 0.00 82 1002.2
20260906164502 22 360 6.4 0.0 0.00 0.00 0.00 82 1002.0
20260906164002 22 360 8.0 0.0 0.00 0.00 0.00 82 1002.3
20260906163600 22 360 8.0 0.0 0.00 0.00 0.00 84 1002.2
20260906163102 22 360 8.0 0.0 0.00 0.00 0.00 86 1002.2
20260906162558 21 360 9.7 0.0 0.00 0.00 0.00 87 1002.0
20260906162055 21 360 8.0 0.0 0.00 0.00 0.00 88 1002.0
20260906161556 21 360 9.7 0.0 0.00 0.00 0.00 89 1002.2
20260906161053 20 360 11.3 0.0 0.00 0.00 0.00 90 1002.4
20260906160553 20 360 12.9 0.0 0.00 0.00 0.00 91 1002.0
20260906155553 20 360 12.9 0.0 0.00 0.00 0.00 92 1002.1
20260906155053 20 360 11.3 0.0 0.00 0.00 0.00 93 1002.1
20260906154553 19 360 11.3 0.0 0.00 0.00 0.00 93 1002.3
20260906154053 19 360 11.3 0.0 0.00 0.00 0.00 93 1002.2
20260906153554 19 360 11.3 0.0 0.00 0.00 0.00 93 1002.3
20260906153112 19 360 11.3 0.0 0.00 0.00 0.00 93 1002.3
20260906152551 19 360 11.3 0.0 0.00 0.00 0.00 93 1002.5
20260906152052 19 360 9.7 0.0 0.00 0.00 0.00 93 1002.4
20260906151559 19 360 9.7 0.0 0.00 0.00 0.00 93 1002.4
20260906151051 19 360 12.9 0.0 0.00 0.00 0.00 93 1002.4
20260906150552 19 360 14.5 0.0 0.00 0.00 0.00 93 1001.7
20260906145550 19 360 16.1 0.0 0.00 0.00 0.00 93 1002.1
20260906145050 19 360 12.9 0.0 0.00 0.00 0.00 93 1001.9
20260906144553 18 360 6.4 0.0 0.00 0.00 0.00 93 1002.5
20260906144052 18 360 4.8 0.0 0.00 0.00 0.00 93 1003.3
20260906143550 18 360 4.8 0.0 0.00 0.00 0.00 93 1003.3
20260906143052 18 360 3.2 0.0 0.00 0.00 0.00 93 1003.6
20260906142549 18 360 6.4 0.0 0.00 0.00 0.00 93 1004.0
20260906142049 18 360 4.8 0.0 0.00 0.00 0.00 93 1003.9
20260906141551 18 360 9.7 0.0 0.00 0.00 0.00 93 1003.8
20260906141048 18 360 17.7 0.0 0.00 0.00 0.00 94 1002.9
20260906140549 18 360 20.9 0.0 0.00 0.00 0.00 94 1001.9
20260906135549 18 360 19.3 0.0 0.00 0.00 0.00 94 1001.6
20260906135046 18 360 17.7 0.0 0.00 0.00 0.00 95 1001.9
20260906134606 18 360 16.1 0.0 0.00 0.00 0.00 95 1002.2
20260906134045 18 360 16.1 0.0 0.00 0.00 0.00 95 1002.4
20260906133544 18 360 12.9 0.0 0.00 0.00 0.00 95 1002.6
20260906133051 18 360 11.3 0.0 0.00 0.00 0.00 95 1002.7
20260906132544 18 360 8.0 0.0 0.00 0.00 0.00 96 1003.0
20260906132045 18 360 6.4 0.0 0.00 0.00 0.00 96 1003.3
20260906131544 18 360 6.4 0.0 0.00 0.00 0.00 96 1003.3
20260906131044 18 360 4.8 0.0 0.00 0.00 0.00 96 1003.5
20260906130544 18 360 6.4 0.0 0.00 0.00 0.00 96 1003.7
20260906125543 18 360 8.0 0.0 0.00 0.00 0.00 96 1003.5
20260906125043 17 360 6.4 0.0 0.00 0.00 0.00 96 1003.6
20260906124544 17 360 6.4 0.0 0.00 0.00 0.00 96 1003.7
20260906124043 17 360 6.4 0.0 0.00 0.00 0.00 96 1003.6
20260906123541 17 360 3.2 0.0 0.00 0.00 0.00 96 1003.4
20260906123053 17 360 1.6 0.0 0.00 0.00 0.00 96 1003.5
20260906122542 17 360 1.6 0.0 0.00 0.00 0.00 96 1003.6
20260906122042 17 360 3.2 0.0 0.00 0.00 0.00 96 1003.6
20260906121544 17 360 1.6 0.0 0.00 0.00 0.00 96 1003.5
20260906121042 16 360 0.0 0.0 0.00 0.00 0.00 96 1003.5
20260906120544 16 360 0.0 0.0 0.00 0.00 0.00 95 1003.6
20260906115542 16 360 0.0 0.0 0.00 0.00 0.00 95 1003.7
20260906115041 16 360 0.0 0.0 0.00 0.00 0.00 95 1003.6
20260906114542 16 360 0.0 0.0 0.00 0.00 0.00 95 1003.6
20260906114042 16 360 0.0 0.0 0.00 0.00 0.00 96 1003.5
20260906113541 15 360 0.0 0.0 0.00 0.00 0.00 96 1003.7
20260906113043 15 360 0.0 0.0 0.00 0.00 0.00 96 1003.6
20260906112539 14 360 0.0 0.0 0.00 0.00 0.00 95 1003.4
20260906112039 14 360 0.0 0.0 0.00 0.00 0.00 94 1003.2
20260906111539 14 360 0.0 0.0 0.00 0.00 0.00 94 1003.2
20260906111039 15 360 0.0 0.0 0.00 0.00 0.00 94 1003.3
20260906110538 15 360 0.0 0.0 0.00 0.00 0.00 93 1003.4
20260906105536 15 360 0.0 0.0 0.00 0.00 0.00 93 1003.4
20260906105037 15 360 0.0 0.0 0.00 0.00 0.00 93 1003.2
20260906104536 16 360 0.0 0.0 0.00 0.00 0.00 93 1003.0
20260906104037 16 360 0.0 0.0 0.00 0.00 0.00 95 1002.9
20260906103535 16 360 0.0 0.0 0.00 0.00 0.00 95 1002.8
20260906103045 15 360 0.0 0.0 0.00 0.00 0.00 95 1002.8
20260906102535 15 360 0.0 0.0 0.00 0.00 0.00 94 1002.6
20260906102035 15 360 0.0 0.0 0.00 0.00 0.00 94 1002.6
20260906101535 15 360 0.0 0.0 0.00 0.00 0.00 94 1002.6
20260906101035 15 360 0.0 0.0 0.00 0.00 0.00 94 1002.5
20260906100535 15 360 0.0 0.0 0.00 0.00 0.00 94 1002.5
20260906095534 15 360 0.0 0.0 0.00 0.00 0.00 93 1002.5
20260906095035 15 360 0.0 0.0 0.00 0.00 0.00 92 1002.4
20260906094533 15 360 0.0 0.0 0.00 0.00 0.00 91 1002.5
20260906094033 16 360 0.0 0.0 0.00 0.00 0.00 92 1002.7
20260906093534 16 360 0.0 0.0 0.00 0.00 0.00 93 1002.7
20260906093037 16 360 0.0 0.0 0.00 0.00 0.00 94 1002.7
20260906092536 16 360 0.0 0.0 0.00 0.00 0.00 93 1002.5
20260906092034 16 360 0.0 0.0 0.00 0.00 0.00 92 1002.4
20260906091531 16 360 0.0 0.0 0.00 0.00 0.00 92 1002.4
20260906091033 17 360 0.0 0.0 0.00 0.00 0.00 93 1002.4
20260906090531 17 360 0.0 0.0 0.00 0.00 0.00 93 1002.4
20260906085528 17 360 0.0 0.0 0.00 0.00 0.00 92 1002.4
20260906085027 17 360 0.0 0.0 0.00 0.00 0.00 93 1002.5
20260906084527 17 360 0.0 0.0 0.00 0.00 0.00 92 1002.6
20260906084026 17 360 0.0 0.0 0.00 0.00 0.00 91 1002.6
20260906083525 17 360 0.0 0.0 0.00 0.00 0.00 91 1002.5
20260906083029 17 360 0.0 0.0 0.00 0.00 0.00 91 1002.6
20260906082524 18 360 0.0 0.0 0.00 0.00 0.00 92 1002.6
20260906082025 18 360 0.0 0.0 0.00 0.00 0.00 92 1002.6
20260906081523 18 360 0.0 0.0 0.00 0.00 0.00 91 1002.6
20260906081022 18 360 0.0 0.0 0.00 0.00 0.00 93 1002.7
20260906080522 18 360 0.0 0.0 0.00 0.00 0.00 93 1002.7
20260906075520 18 360 0.0 0.0 0.00 0.00 0.00 92 1002.8
20260906075021 18 360 0.0 0.0 0.00 0.00 0.00 92 1002.9
20260906074521 18 360 0.0 0.0 0.00 0.00 0.00 92 1002.9
20260906074021 18 360 0.0 0.0 0.00 0.00 0.00 92 1002.9
20260906073521 18 360 0.0 0.0 0.00 0.00 0.00 92 1003.0
20260906073019 18 360 0.0 0.0 0.00 0.00 0.00 91 1003.0
20260906072518 18 360 0.0 0.0 0.00 0.00 0.00 90 1003.0
20260906072022 18 360 0.0 0.0 0.00 0.00 0.00 91 1003.1
20260906071517 18 360 0.0 0.0 0.00 0.00 0.00 90 1003.2
20260906071017 18 360 0.0 0.0 0.00 0.00 0.00 90 1003.2
20260906070516 18 360 0.0 0.0 0.00 0.00 0.00 89 1003.2
20260906065516 18 360 0.0 0.0 0.00 0.00 0.00 89 1003.1
20260906065014 19 360 0.0 0.0 0.00 0.00 0.00 88 1003.2
20260906064513 19 360 0.0 0.0 0.00 0.00 0.00 88 1003.2
20260906064012 19 360 0.0 0.0 0.00 0.00 0.00 88 1003.2
20260906063511 20 360 0.0 0.0 0.00 0.00 0.00 88 1003.2
20260906063011 20 360 0.0 0.0 0.00 0.00 0.00 89 1003.2
20260906062511 20 360 0.0 0.0 0.00 0.00 0.00 89 1003.2
20260906062010 20 360 0.0 0.0 0.00 0.00 0.00 89 1003.3
20260906061510 20 360 0.0 0.0 0.00 0.00 0.00 89 1003.2
20260906061008 20 360 0.0 0.0 0.00 0.00 0.00 88 1003.2
20260906060507 20 360 0.0 0.0 0.00 0.00 0.00 88 1003.3
20260906055510 20 360 1.6 0.0 0.00 0.00 0.00 87 1003.2
20260906055007 20 360 3.2 0.0 0.00 0.00 0.00 87 1003.2
20260906054506 21 360 4.8 0.0 0.00 0.00 0.00 86 1003.2
20260906054006 21 360 4.8 0.0 0.00 0.00 0.00 86 1003.2
20260906053507 21 360 4.8 0.0 0.00 0.00 0.00 86 1003.2
20260906053007 21 360 3.2 0.0 0.00 0.00 0.00 86 1003.2
20260906052507 21 360 1.6 0.0 0.00 0.00 0.00 86 1003.1
20260906052011 21 360 1.6 0.0 0.00 0.00 0.00 86 1003.2
20260906051507 21 360 1.6 0.0 0.00 0.00 0.00 86 1003.1
20260906051007 21 360 0.0 0.0 0.00 0.00 0.00 86 1003.2
20260906050506 21 360 1.6 0.0 0.00 0.00 0.00 86 1003.2
20260906045507 21 360 3.2 0.0 0.00 0.00 0.00 84 1003.2
20260906045010 21 360 1.6 0.0 0.00 0.00 0.00 84 1003.2
20260906044506 21 360 1.6 0.0 0.00 0.00 0.00 83 1003.3
20260906044008 22 360 3.2 0.0 0.00 0.00 0.00 83 1003.2
20260906043507 22 360 6.4 0.0 0.00 0.00 0.00 83 1003.2
20260906043006 22 360 8.0 0.0 0.00 0.00 0.00 82 1003.2
20260906042506 22 360 11.3 0.0 0.00 0.00 0.00 82 1003.2
20260906042005 22 360 11.3 0.0 0.00 0.00 0.00 81 1003.2
20260906041507 22 360 11.3 0.0 0.00 0.00 0.00 81 1003.2
20260906041011 22 360 12.9 0.0 0.00 0.00 0.00 81 1003.1
20260906040505 23 360 14.5 0.0 0.00 0.00 0.00 80 1003.2
20260906040011 23 360 14.5 0.0 0.00 0.00 0.00 79 1003.2
20260906035504 23 360 16.1 0.0 0.00 0.00 0.00 79 1003.2
20260906035004 23 360 16.1 0.0 0.00 0.00 0.00 78 1003.2
20260906034505 23 360 17.7 0.0 0.00 0.00 0.00 78 1003.2
20260906034006 23 360 17.7 0.0 0.00 0.00 0.00 77 1003.2
20260906033504 23 360 17.7 0.0 0.00 0.00 0.00 77 1003.2
20260906032503 23 360 17.7 0.0 0.00 0.00 0.00 76 1003.2
20260906032004 23 360 17.7 0.0 0.00 0.00 0.00 76 1003.2
20260906031503 23 360 16.1 0.0 0.00 0.00 0.00 76 1003.3
20260906031003 23 360 16.1 0.0 0.00 0.00 0.00 77 1003.3
20260906030504 23 360 16.1 0.0 0.00 0.00 0.00 77 1003.3
20260906030003 23 360 16.1 0.0 0.00 0.00 0.00 77 1003.3
20260906025502 23 360 16.1 0.0 0.00 0.00 0.00 77 1003.1
20260906025002 23 360 14.5 0.0 0.00 0.00 0.00 77 1003.2
20260906024502 23 360 16.1 0.0 0.00 0.00 0.00 76 1003.1
20260906024001 23 360 16.1 0.0 0.00 0.00 0.00 76 1003.1
20260906023600 23 360 17.7 0.0 0.00 0.00 0.00 76 1003.0
20260906023501 23 360 17.7 0.0 0.00 0.00 0.00 76 1003.0
20260906023200 23 360 17.7 0.0 0.00 0.00 0.00 75 1002.9
20260906022602 23 360 19.3 0.0 0.00 0.00 0.00 75 1002.9
20260906022100 23 360 17.7 0.0 0.00 0.00 0.00 74 1002.8
20260906021607 24 360 17.7 0.0 0.00 0.00 0.00 74 1002.9
20260906021101 24 360 16.1 0.0 0.00 0.00 0.00 73 1002.8
20260906020600 24 360 16.1 0.0 0.00 0.00 0.00 73 1002.8
20260906020106 24 360 14.5 0.0 0.00 0.00 0.00 73 1002.8
20260906015558 24 360 12.9 0.0 0.00 0.00 0.00 73 1002.6
20260906015057 24 360 12.9 0.0 0.00 0.00 0.00 72 1002.5
20260906014557 24 360 12.9 0.0 0.00 0.00 0.00 72 1002.5
20260906014056 25 360 14.5 0.0 0.00 0.00 0.00 72 1002.4
20260906013556 25 360 16.1 0.0 0.00 0.00 0.00 71 1002.3
20260906013155 25 360 16.1 0.0 0.00 0.00 0.00 70 1002.2
20260906012554 25 360 14.5 0.0 0.00 0.00 0.00 70 1002.2
20260906012054 25 360 14.5 0.0 0.00 0.00 0.00 69 1002.0
20260906011554 25 360 14.5 0.0 0.00 0.00 0.00 68 1001.9
20260906011053 26 360 16.1 0.0 0.00 0.00 0.00 67 1001.7
20260906010553 26 360 12.9 0.0 0.00 0.00 0.00 66 1001.6
20260906010054 26 360 9.7 0.0 0.00 0.00 0.00 66 1001.6
20260906005553 26 360 8.0 0.0 0.00 0.00 0.00 65 1001.4
20260906005053 27 360 6.4 0.0 0.00 0.00 0.00 65 1001.4
20260906004555 27 360 6.4 0.0 0.00 0.00 0.00 65 1001.3
20260906004053 27 360 9.7 0.0 0.00 0.00 0.00 64 1001.3
20260906003552 27 360 11.3 0.0 0.00 0.00 0.00 63 1001.4
20260906003154 27 360 9.7 0.0 0.00 0.00 0.00 63 1001.4
20260906002552 27 360 9.7 0.0 0.00 0.00 0.00 63 1001.4
20260906002054 27 360 8.0 0.0 0.00 0.00 0.00 63 1001.4
20260906001551 27 360 9.7 0.0 0.00 0.00 0.00 63 1001.4
20260906001056 27 360 9.7 0.0 0.00 0.00 0.00 63 1001.4
20260906000552 27 360 11.3 0.0 0.00 0.00 0.00 63 1001.3
20260906000104 27 360 12.9 0.0 0.00 0.00 0.00 63 1001.3
20260905235551 27 360 12.9 0.0 0.00 0.00 0.00 62 1001.4
20260905235051 27 360 12.9 0.0 0.00 0.00 0.00 63 1001.3
20260905234613 27 360 12.9 0.0 0.00 0.00 0.00 63 1001.3
20260905234050 27 360 12.9 0.0 0.00 0.00 0.00 63 1001.2
20260905233551 27 360 14.5 0.0 0.00 0.00 0.00 62 1001.2
20260905233150 27 360 14.5 0.0 0.00 0.00 0.00 62 1001.1
20260905232551 27 360 14.5 0.0 0.00 0.00 0.00 62 1001.1
20260905232051 27 360 16.1 0.0 0.00 0.00 0.00 63 1001.0
20260905231555 27 360 17.7 0.0 0.00 0.00 0.00 62 1001.1
20260905231051 27 360 16.1 0.0 0.00 0.00 0.00 62 1001.1
20260905230551 27 360 16.1 0.0 0.00 0.00 0.00 62 1001.0
20260905230056 27 360 16.1 0.0 0.00 0.00 0.00 62 1001.0
20260905225550 27 360 17.7 0.0 0.00 0.00 0.00 62 1000.9
20260905225051 27 360 19.3 0.0 0.00 0.00 0.00 62 1000.9
20260905224552 28 360 16.1 0.0 0.00 0.00 0.00 62 1000.8
20260905224051 27 360 16.1 0.0 0.00 0.00 0.00 62 1000.9
20260905223550 27 360 14.5 0.0 0.00 0.00 0.00 62 1001.1
20260905223150 28 360 14.5 0.0 0.00 0.00 0.00 62 1001.1
20260905222553 28 360 12.9 0.0 0.00 0.00 0.00 62 1001.1
20260905222049 28 360 14.5 0.0 0.00 0.00 0.00 62 1001.0
20260905221554 28 360 12.9 0.0 0.00 0.00 0.00 62 1001.2
20260905221053 28 360 12.9 0.0 0.00 0.00 0.00 63 1001.1
20260905220550 28 360 11.3 0.0 0.00 0.00 0.00 63 1001.1
20260905220058 27 360 11.3 0.0 0.00 0.00 0.00 63 1001.1
20260905215550 28 360 14.5 0.0 0.00 0.00 0.00 62 1001.2
20260905215049 28 360 14.5 0.0 0.00 0.00 0.00 62 1001.1